Oakland, CA

9:04 AM PDT on April 21, 2018 (GMT -0700)
Metro Oakland International

Weather History for KOAK - March, 2013

Change the Weather History Date:

Friday, March 8, 2013

  Actual Average Record
Temperature  
Mean Temperature 54 °F 54 °F  
Max Temperature 61 °F 62 °F 87 °F (1986)
Min Temperature 46 °F 46 °F 35 °F (2002)
Degree Days  
Heating Degree Days 11 11  
Month to date heating degree days 81 93  
Since 1 July heating degree days 1987 2115  
Cooling Degree Days 0 0  
Month to date cooling degree days 0 0  
Year to date cooling degree days 0 0  
Growing Degree Days 3 (Base 50)    
Moisture  
Dew Point 47 °F    
Average Humidity 82    
Maximum Humidity 100    
Minimum Humidity 64    
Precipitation  
Precipitation 0.00 in 0.11 in 1.73 in (1978)
Month to date precipitation 0.21 0.93  
Year to date precipitation 1.02 8.87  
Since 1 July precipitation 12.01  
Sea Level Pressure  
Sea Level Pressure 29.93 in    
Wind  
Wind Speed 12 mph (WNW)    
Max Wind Speed 31 mph    
Max Gust Speed 37 mph    
Visibility 10 miles    
Events      
T = Trace of Precipitation, MM = Missing Value Source: NWS Daily Summary

Daily Weather History Graph

Daily Weather History Graph

Search for Another Location

Airport or City:

Astronomy

Mar. 08, 2013 Rise Set
Actual Time 6:29 AM PST 6:09 PM PST
Civil Twilight 6:03 AM PST 6:35 PM PST
Nautical Twilight 5:33 AM PST 7:06 PM PST
Astronomical Twilight 5:02 AM PST 7:36 PM PST
Moon 4:15 AM PST (3/8) 3:13 PM PST (3/8)
Length of Visible Light 12h 32m
Length of Day
11h 39m
Waning Crescent, 11% of the Moon is Illuminated
Mar 8
Waning Crescent
Mar 11
New
Mar 19
First Quarter
Mar 27
Full
Apr 2
Last Quarter

Hourly Weather History & Observations

Time (PST) Temp. Dew Point Humidity Pressure Visibility Wind Dir Wind Speed Gust Speed Precip Events Conditions
12:53 AM 51.1 °F 50.0 °F 96% 29.88 in 10.0 mi NNW 3.5 mph - N/A   Overcast
1:53 AM 50.0 °F 48.9 °F 96% 29.88 in 10.0 mi NW 4.6 mph - N/A   Mostly Cloudy
2:53 AM 48.9 °F 48.0 °F 97% 29.86 in 10.0 mi NNW 5.8 mph - N/A   Mostly Cloudy
3:53 AM 48.9 °F 46.9 °F 93% 29.85 in 10.0 mi NNW 6.9 mph - N/A   Mostly Cloudy
4:53 AM 48.9 °F 44.1 °F 83% 29.86 in 10.0 mi NNW 6.9 mph - N/A   Overcast
5:53 AM 46.9 °F 43.0 °F 86% 29.87 in 10.0 mi North 3.5 mph - N/A   Mostly Cloudy
6:53 AM 48.0 °F 43.0 °F 83% 29.88 in 10.0 mi Calm Calm - N/A   Scattered Clouds
7:53 AM 51.1 °F 43.0 °F 74% 29.89 in 10.0 mi NW 3.5 mph - N/A   Scattered Clouds
8:53 AM 54.0 °F 45.0 °F 72% 29.91 in 10.0 mi NNW 3.5 mph - N/A   Scattered Clouds
9:53 AM 55.0 °F 45.0 °F 69% 29.92 in 10.0 mi WSW 3.5 mph - N/A   Scattered Clouds
10:53 AM 55.9 °F 46.0 °F 69% 29.92 in 10.0 mi WSW 6.9 mph - N/A   Scattered Clouds
11:53 AM 57.0 °F 46.0 °F 67% 29.92 in 10.0 mi WSW 5.8 mph - N/A   Scattered Clouds
12:53 PM 60.1 °F 48.0 °F 64% 29.91 in 10.0 mi West 15.0 mph - N/A   Scattered Clouds
1:53 PM 60.1 °F 48.0 °F 64% 29.91 in 10.0 mi West 19.6 mph - N/A   Partly Cloudy
2:53 PM 59.0 °F 48.0 °F 67% 29.91 in 10.0 mi West 24.2 mph - N/A   Partly Cloudy
3:53 PM 57.0 °F 48.0 °F 72% 29.93 in 10.0 mi West 24.2 mph - N/A   Mostly Cloudy
4:53 PM 55.9 °F 46.9 °F 72% 29.93 in 10.0 mi West 28.8 mph - N/A   Scattered Clouds
5:53 PM 53.1 °F 46.9 °F 80% 29.96 in 10.0 mi West 21.9 mph - N/A   Scattered Clouds
6:53 PM 52.0 °F 48.0 °F 86% 29.99 in 10.0 mi West 21.9 mph - N/A   Partly Cloudy
7:53 PM 52.0 °F 46.9 °F 83% 30.01 in 10.0 mi West 21.9 mph - N/A   Partly Cloudy
8:53 PM 52.0 °F 46.9 °F 83% 30.04 in 10.0 mi West 16.1 mph - N/A   Partly Cloudy
9:53 PM 51.1 °F 46.0 °F 83% 30.06 in 10.0 mi West 19.6 mph - N/A   Partly Cloudy
10:53 PM 51.1 °F 46.9 °F 86% 30.06 in 10.0 mi West 18.4 mph - N/A   Partly Cloudy
11:53 PM 50.0 °F 46.9 °F 89% 30.07 in 10.0 mi WNW 8.1 mph - N/A   Partly Cloudy